Das Wetter in  D-61279 Heinzenberg / Taunus





Wetter Minimum- & Maximum-Werte im Juni 2015

Standort: Heinzenberg / Taunus - Höhe 297 m         8 24' 1" Ost 50 21' 51" Nord
(   3-stündige Aktualisierung    letzte Aktualisierung um 19:04 am 30.06.2015  )


Messgrösse

Minimum

Maximum

Durchschnitt

Temperatur West /
Luftfeuchte West
Anklicken für Monats-Diagramm

5,4 C

05:42
17.06.2015

29 %

17:49
30.06.2015

34,0 C

17:05
05.06.2015

92 %

16:33
23.06.2015

Temp

16,9 C

Feuchte

66 %

Temperatur Ost /
Luftfeuchte Ost
Anklicken für Monats-Diagramm

5,4 C

05:37
17.06.2015

--

--
--

32,6 C

17:05
05.06.2015

--

--
--

16,7 C

--

Luftdruck Anklicken für Monats-Diagramm

1005,3 hPa

21:07
22.06.2015

1028,6 hPa

09:47
07.06.2015

1018,8 hPa

Taupunkt

1,4 C

05:32
17.06.2015

18,2 C

11:16
06.06.2015

9,9 C

Windchill
( gefühlte Temperatur )

0,1 C

02:53
23.06.2015

34,0 C

17:05
05.06.2015

15,5 C

Windgeschwindigkeit /
Windrichtung
Anklicken für Monats-Diagramm

---

50,5 km/h / W-SW

17:42
02.06.2015

8,2 km/h
W

Helligkeit /
Sonnenschein
Anklicken für Monats-Diagramm
Anklicken für Monats-Diagramm

Sonnenschein:

177:27 Stunden

Max: 14:26 Std am
30.06.2015

114 klux

14:05
20.06.2015

31 klux

Solarstrahlung Anklicken für Monats-Diagramm

---

780 W/m

14:05
20.06.2015

227 W/m

Regenmenge
    Juni 2015
Anklicken für Monats-Diagramm

Insgesamt 59,7 l/m

in 49:44 Stunden
an 13 Tagen

13,8 l/m

21:32
22.06.2015

Gesamtmenge

59,7 l/m

Regen-Tage
    Juni 2015
Anklicken für Monats-Diagramm

>   0 mm/Tag

>   2 mm/Tag

>   5 mm/Tag

> 10 mm/Tag

> 20 mm/Tag

13 Tage     
7 Tage     
6 Tage     
2 Tage     
0 Tage     

Eisige Tage Juni 2015 / 2014

Tmin ≤ -10C     

0 Tage

/

0 Tage

Eistage Juni 2015 / 2014

Tmax <     0C     

0 Tage

/

0 Tage

Frosttage Juni 2015 / 2014

Tmin ≤     0C     

0 Tage

/

0 Tage

Kalte Tage Juni 2015 / 2014

Tmax <   10C     

0 Tage

/

0 Tage

Warme Tage Juni 2015 / 2014

Tmax ≥   20C     

23 Tage

/

24 Tage

Sommertage Juni 2015 / 2014

Tmax ≥   25C     

15 Tage

/

8 Tage

Heisse Tage Juni 2015 / 2014

Tmax ≥   30C     

3 Tage

/

4 Tage


Monatsdiagramm Juni 2015

Die Kurven zeigen den Durchschnittswert des jeweiligen Tages an


Wetter-Monatsübersicht Juni 2015
Datum
  Temperatur
   Luftdruck
   Wind
  Regen
   Luftfeuchte
   Helligkeit

Sonnen-
schein


Temp.

Min.
Temp.

Max.
Temp.


Luftdruck

Min.
Luftdruck

Max.
Luftdruck

-Geschw.
Haupt-Richtg.

Max.
Wind

Menge /
Dauer


Feuchte

Min.
Feuchte

Max.
Feuchte


Helligkeit

Max.
Helligkeit

1.
Juni
13,6 C10,7 C
23:57
16,4 C
16:31
1015,3 hPa1012,0 hPa
01:06
1017,6 hPa
13:36
6,2 km/h
W-SW
33,1 km/h
04:36  
1,7 l/m
4:05 Stunden
79 %64 %
16:56
88 %
06:36
16,6 klux76,6 klux
16:16
1:15 Std 
2.
Juni
16,6 C9,7 C
02:12
25,4 C
18:32
1014,8 hPa1013,0 hPa
18:32
1016,9 hPa
01:17
19,8 km/h
W-SW
50,5 km/h
17:42  
0,6 l/m
2:25 Stunden
64 %40 %
15:32
82 %
04:52
30,2 klux98,8 klux
14:02
5:55 Std 
3.
Juni
18,5 C13,2 C
23:59
24,3 C
17:53
1020,4 hPa1015,8 hPa
00:02
1026,8 hPa
23:59
14,1 km/h
W-SW
39,7 km/h
09:58  
---
61 %46 %
17:53
71 %
13:28
30,9 klux101,0 klux
13:53
6:20 Std 
4.
Juni
18,7 C9,2 C
03:29
29,1 C
16:04
1025,6 hPa1021,5 hPa
21:09
1028,4 hPa
03:29
4,7 km/h
SO
21,8 km/h
13:24  
---
56 %31 %
18:39
79 %
07:29
44 klux80 klux
13:09
13:40 Std 
5.
Juni
22,3 C9,5 C
05:35
34,0 C
17:05
1019,3 hPa1014,4 hPa
19:45
1023,8 hPa
02:05
7,1 km/h
SW
29,8 km/h
14:00  
---
57 %32 %
15:50
80 %
07:35
42,6 klux78,2 klux
14:00
13:35 Std 
6.
Juni
20,5 C16,4 C
23:47
24,3 C
18:16
1021,2 hPa1016,5 hPa
00:01
1026,4 hPa
23:47
10,0 km/h
NW
34,6 km/h
04:31  
6,1 l/m
2:05 Stunden
72 %58 %
18:21
86 %
07:21
30,9 klux93,0 klux
13:06
5:55 Std 
7.
Juni
19,0 C11,1 C
05:52
28,4 C
18:12
1026,3 hPa1024,0 hPa
18:12
1028,6 hPa
09:47
5,3 km/h
NW
18,8 km/h
17:17  
---
57 %31 %
16:42
84 %
06:02
41,9 klux78,7 klux
12:57
10:55 Std 
8.
Juni
16,0 C11,7 C
03:43
22,7 C
16:58
1025,8 hPa1023,6 hPa
16:58
1027,0 hPa
03:43
8,8 km/h
NO
29,0 km/h
20:38  
---
57 %44 %
17:03
69 %
06:33
33,3 klux81,5 klux
15:43
6:10 Std 
9.
Juni
14,3 C9,2 C
06:24
19,5 C
17:04
1025,9 hPa1025,0 hPa
17:04
1027,0 hPa
23:50
8,0 km/h
NO
29,0 km/h
18:34  
---
59 %47 %
14:54
72 %
06:54
29,4 klux102,0 klux
14:39
3:10 Std 
10.
Juni
16,0 C7,2 C
05:15
25,3 C
15:45
1024,0 hPa1020,5 hPa
19:05
1027,1 hPa
00:15
6,1 km/h
NO
27,1 km/h
14:55  
---
61 %43 %
16:55
79 %
07:15
33 klux96 klux
12:20
4:45 Std 
11.
Juni
19,5 C14,1 C
05:51
26,1 C
17:31
1019,0 hPa1014,5 hPa
21:01
1022,5 hPa
04:21
5,9 km/h
O-SO
25,7 km/h
11:31  
---
56 %41 %
18:26
70 %
06:36
32,6 klux98,5 klux
12:46
5:55 Std 
12.
Juni
20,0 C10,2 C
05:47
31,4 C
15:07
1011,8 hPa1007,3 hPa
18:07
1016,3 hPa
00:47
4,6 km/h
SO
35,3 km/h
19:07  
0,6 l/m
2:09 Stunden
65 %40 %
15:07
81 %
07:42
32,4 klux83,5 klux
14:52
6:00 Std 
13.
Juni
19,0 C15,0 C
06:18
25,2 C
18:48
1009,9 hPa1008,9 hPa
07:58
1012,0 hPa
23:59
9,2 km/h
W
37,8 km/h
10:53  
---
15 Minuten
73 %49 %
18:48
86 %
06:28
23,0 klux92,8 klux
14:08
3:10 Std 
14.
Juni
19,2 C10,4 C
06:34
28,3 C
16:14
1010,4 hPa1007,5 hPa
16:14
1012,7 hPa
06:34
7,7 km/h
NW
26,0 km/h
13:49  
---
56 %31 %
16:19
83 %
07:09
43,0 klux78,5 klux
13:44
12:05 Std 
15.
Juni
18,0 C12,8 C
05:35
25,0 C
17:55
1015,7 hPa1010,9 hPa
00:00
1020,4 hPa
23:51
6,4 km/h
NO
22,6 km/h
14:45  
---
62 %42 %
18:05
79 %
07:10
34,8 klux100,0 klux
13:40
6:25 Std 
16.
Juni
15,3 C9,4 C
06:21
21,4 C
18:01
1021,5 hPa1020,4 hPa
00:11
1024,0 hPa
23:57
6,2 km/h
NO
25,6 km/h
17:26  
---
56 %40 %
18:26
71 %
06:31
33 klux88 klux
12:26
7:35 Std 
17.
Juni
14,8 C5,4 C
05:42
23,4 C
14:22
1023,0 hPa1018,8 hPa
19:47
1026,8 hPa
05:42
5,8 km/h
NW
23,0 km/h
14:37  
---
54 %33 %
13:27
78 %
06:57
38,7 klux83,9 klux
13:57
8:10 Std 
18.
Juni
16,7 C11,9 C
23:54
21,4 C
16:48
1015,4 hPa1013,4 hPa
16:48
1019,3 hPa
00:03
16,7 km/h
NW
37,9 km/h
18:23  
9,0 l/m
5:20 Stunden
67 %47 %
17:43
90 %
11:53
26,3 klux104,0 klux
12:48
3:15 Std 
19.
Juni
11,7 C9,4 C
03:14
15,0 C
13:34
1017,8 hPa1016,6 hPa
00:04
1018,9 hPa
23:40
11,9 km/h
W-NW
29,4 km/h
13:24  
0,5 l/m
2:05 Stunden
73 %65 %
13:34
80 %
19:04
15 klux62 klux
13:09
--- 
20.
Juni
12,1 C9,2 C
06:30
17,6 C
17:40
1019,6 hPa1018,9 hPa
00:00
1020,9 hPa
23:36
9,0 km/h
W
21,5 km/h
19:00  
5,2 l/m
2:00 Stunden
75 %54 %
18:15
86 %
04:40
22,9 klux114,0 klux
14:05
1:45 Std 
21.
Juni
13,3 C10,0 C
03:26
19,0 C
16:01
1016,9 hPa1012,8 hPa
18:51
1021,0 hPa
00:51
4,6 km/h
W-SW
39,0 km/h
19:11  
11,9 l/m
3:35 Stunden
81 %65 %
16:06
90 %
16:51
18 klux87 klux
13:16
25 Min 
22.
Juni
11,7 C9,5 C
04:32
13,4 C
13:42
1010,5 hPa1005,3 hPa
21:07
1014,8 hPa
03:07
10,0 km/h
W-SW
39,6 km/h
16:07  
13,8 l/m
13:55 Stunden
87 %85 %
13:47
90 %
06:47
14,6 klux40,8 klux
13:12
--- 
23.
Juni
10,9 C8,4 C
05:38
15,8 C
14:23
1012,3 hPa1005,5 hPa
00:03
1018,8 hPa
23:04
16,8 km/h
W
43,0 km/h
15:08  
4,9 l/m
5:00 Stunden
85 %64 %
14:08
92 %
16:33
22,6 klux106,0 klux
12:28
1:40 Std 
24.
Juni
13,7 C10,3 C
05:34
20,8 C
18:29
1021,7 hPa1018,8 hPa
00:04
1023,8 hPa
12:19
8,6 km/h
W
17,8 km/h
13:09  
---
77 %55 %
18:39
88 %
00:49
24 klux92 klux
15:49
4:56 Std 
25.
Juni
17,2 C8,4 C
05:45
26,6 C
17:55
1022,5 hPa1020,1 hPa
17:55
1024,3 hPa
05:45
4,3 km/h
W-NW
20,9 km/h
17:20  
---
66 %37 %
17:00
88 %
08:05
38,3 klux91,7 klux
14:30
8:10 Std 
26.
Juni
19,0 C11,7 C
05:21
27,7 C
14:51
1019,8 hPa1017,3 hPa
18:21
1022,7 hPa
02:21
5,7 km/h
W
35,5 km/h
14:36  
---
25 Minuten
67 %40 %
14:31
83 %
08:16
28,4 klux105,0 klux
14:21
3:05 Std 
27.
Juni
18,8 C15,2 C
23:58
24,7 C
17:12
1016,8 hPa1015,1 hPa
08:17
1021,4 hPa
23:58
10,3 km/h
NW
35,1 km/h
17:32  
5,6 l/m
6:25 Stunden
73 %49 %
17:17
87 %
06:42
25 klux95 klux
13:07
4:05 Std 
28.
Juni
17,5 C9,0 C
06:08
25,4 C
16:03
1021,4 hPa1019,2 hPa
16:28
1023,2 hPa
06:08
2,8 km/h
NW
18,0 km/h
15:08  
---
63 %38 %
14:28
85 %
08:13
38,3 klux85,2 klux
13:08
8:10 Std 
29.
Juni
21,0 C14,1 C
06:29
29,2 C
15:44
1019,9 hPa1018,8 hPa
15:44
1022,2 hPa
23:59
6,6 km/h
NW
27,3 km/h
15:49  
---
61 %43 %
15:34
80 %
06:24
39,3 klux98,6 klux
12:04
6:30 Std 
30.
Juni
21,9 C11,5 C
06:39
32,3 C
17:09
1020,5 hPa1017,4 hPa
17:49
1022,9 hPa
06:39
3,0 km/h
SO
45,8 km/h
15:49  
---
56 %29 %
17:49
81 %
06:54
43,7 klux79,2 klux
13:54
14:26 Std 



Juni
2015

Temperatur

  

Luftdruck

  

Wind

  

Regen

  

Luftfeuchte

  

Helligkeit

Sonnen-
schein

Min

Max

Min

Max

Max

Max

Min

Max

Max

Max

16,9 C

5,4 C

05:42 Uhr
17.06.2015

34,0 C

17:05 Uhr
05.06.2015

1018,8 hPa

1005,3 hPa

21:07 Uhr
22.06.2015

1028,6 hPa

09:47 Uhr
07.06.2015

8,2 km/h

W

50,5 km/h

17:42 Uhr
02.06.2015

13,8 l/m

13:55 Stunden
22.06.2015

66 %

29 %

17:49 Uhr
30.06.2015

92 %

16:33 Uhr
23.06.2015

30,8 klux

114,0 klux

14:05 Uhr
20.06.2015

14:26 Std

am
30.06.2015

Gesamt

Gesamt

59,7 l/m

13 Tage
49:44 h

177:27 Std


Wetter-Diagramme Juni 2015     Heinzenberg / Taunus   
TemperaturLuftfeuchte
SolarstrahlungLuftdruck
HelligkeitSonnenschein
RegenmengeRegendauer
Wind-GeschwindigkeitWind-Richtung